Home   Weather   Penza   Past weeks

Flag for Russia Past Weather in Penza, Russia — Yesterday and Last 2 Weeks

Now
50 °F

Clear.


Feels Like: 49 °F
Forecast: 49 / 59 °F
Wind: 3 mph from Southwest

Location: Saratov / Tsentralny

Current Time: Sep 30, 2016 at 9:38:09 PM

Latest Report: Sep 30, 2016 at 9:00 PM


Visibility: 10 mi

Pressure: 30.09 "Hg

Humidity: 71%

Dew Point: 41 °F

Location of PenzaLocation

Past Weather in Penza — Graph

°F

Penza Temperature Yesterday

Maximum temperature yesterday: 50 °F (at 2:00 PM)
Minimum temperature yesterday: 46 °F (at 12:00 AM)
Average temperature yesterday: 48 °F

High & Low Weather Summary for the Past Weeks

 TemperatureHumidityPressure
High63 °F (Sep 23, 3:00 PM)100% (Sep 17, 5:00 PM)30.12 "Hg (Sep 17, 5:00 PM)
Low46 °F (Sep 15, 10:00 PM)48% (Sep 16, 3:00 PM)29.62 "Hg (Sep 21, 11:00 PM)
Average51 °F85%29.85 "Hg
* Reported Sep 15 8:00 PM — Sep 30 8:30 PM, Penza, Weather by CustomWeather, © 2016

Note: Actual official high and low records may vary slightly from our data, if they occured in-between our weather recording intervals... More about our weather records

Advertising

Penza Weather History for the Previous 24 Hours

Scroll right to see more
 ConditionsComfort  
Time TempWeatherWind HumidityBarometerVisibility
8:30 PM
Fri, Sep 30
50 °FClear.3 mph71%30.09 "Hg10 mi
8:00 PM50 °FClear.3 mph71%30.09 "Hg10 mi
7:30 PM50 °FClear.3 mph71%30.09 "Hg10 mi
7:00 PM50 °FClear.3 mph71%30.09 "Hg10 mi
6:30 PM50 °FOvercast.3 mph71%30.09 "HgN/A
6:00 PM50 °FOvercast.6 mph71%30.09 "HgN/A
5:30 PM54 °FPartly sunny.6 mph58%30.09 "HgN/A
5:00 PM54 °FOvercast.8 mph58%30.09 "HgN/A
4:30 PM54 °FOvercast.8 mph63%30.07 "HgN/A
4:00 PM54 °FOvercast.10 mph63%30.07 "HgN/A
3:30 PM54 °FOvercast.10 mph63%30.09 "HgN/A
3:00 PM54 °FOvercast.10 mph63%30.09 "HgN/A
2:30 PM54 °FPartly sunny.10 mph67%30.07 "HgN/A
2:00 PM54 °FPartly sunny.8 mph67%30.07 "HgN/A
1:30 PM54 °FPartly sunny.8 mph67%30.07 "HgN/A
1:00 PM54 °FPartly sunny.8 mph67%30.07 "HgN/A
12:30 PM54 °FPartly sunny.8 mph72%30.07 "HgN/A
12:00 PM54 °FPartly sunny.10 mph72%30.07 "HgN/A
11:30 AM52 °FBroken clouds.8 mph77%30.07 "HgN/A
11:00 AM52 °FBroken clouds.6 mph77%30.07 "HgN/A
10:30 AM52 °FBroken clouds.6 mph82%30.04 "HgN/A
10:00 AM52 °FBroken clouds.8 mph82%30.04 "HgN/A
9:30 AM48 °FPartly sunny.10 mph87%30.01 "HgN/A
9:00 AM48 °FPartly sunny.10 mph87%30.01 "HgN/A
8:30 AM48 °FPartly sunny.10 mph87%30.01 "HgN/A
8:00 AM48 °FPartly sunny.10 mph87%30.01 "HgN/A
7:30 AM46 °FPartly sunny.10 mph93%30.01 "HgN/A
7:00 AM46 °FPartly sunny.10 mph93%30.01 "HgN/A
6:30 AM46 °FPartly sunny.8 mph93%29.98 "HgN/A
6:00 AM46 °FFog.8 mph93%29.98 "Hg2 mi
5:30 AM46 °FPartly cloudy.8 mph93%29.98 "HgN/A
5:00 AM46 °FPartly cloudy.8 mph93%29.98 "HgN/A
4:30 AM46 °FMostly cloudy.10 mph93%29.98 "HgN/A
4:00 AM46 °FMostly cloudy.10 mph93%29.98 "HgN/A
3:30 AM46 °FMostly cloudy.10 mph93%29.95 "HgN/A
3:00 AM46 °FMostly cloudy.13 mph93%29.95 "HgN/A
2:30 AM46 °FMostly cloudy.10 mph93%29.95 "HgN/A
2:00 AM46 °FMostly cloudy.10 mph93%29.95 "HgN/A
1:30 AM48 °FMostly cloudy.13 mph87%29.95 "HgN/A
1:00 AM48 °FMostly cloudy.10 mph87%29.95 "HgN/A
12:30 AM48 °FMostly cloudy.10 mph87%29.92 "HgN/A
12:00 AM48 °FMostly cloudy.13 mph87%29.92 "HgN/A
11:30 PM
Thu, Sep 29
48 °FMostly cloudy.10 mph82%29.92 "HgN/A
11:00 PM48 °FMostly cloudy.10 mph82%29.92 "HgN/A
10:30 PM48 °FMostly cloudy.13 mph87%29.92 "HgN/A
10:00 PM48 °FMostly cloudy.13 mph87%29.92 "HgN/A
9:30 PM48 °FMostly cloudy.8 mph82%29.92 "HgN/A
9:00 PM48 °FMostly cloudy.6 mph82%29.92 "HgN/A
Weather by CustomWeather, © 2016

See weather overviewHow to use our weather pages